Flag for Australia Weather past 2 weeks in Port Hedland, Western Australia, Australia

Now
88 °F

Sunny.


Feels Like: 84 °F
Forecast: 62 / 86 °F
Wind: 10 mph from Southwest

Location: Port Hedland Pardoo

Current Time: Aug 31, 2014 at 10:24:02 AM

Latest Report: Aug 31, 2014 at 9:30 AM


Visibility: 10 mi

Pressure: 30.01 "Hg

Humidity: 4%

Dew point: 3 °F

Location of Port HedlandLocation

Historic Weather in Port Hedland — Graph

°F

Port Hedland temperature yesterday

Maximum temperature yesterday: 91 °F (at 12:00 PM)
Minimum temperature yesterday: 55 °F (at 1:00 AM)
Average temperature yesterday: 72 °F

Past Weeks' High & Low Weather Summary

 TemperatureHumidityPressure
High91 °F (Aug 24, 11:30 AM)100% (Aug 20, 2:30 AM)30.21 "Hg (Aug 20, 2:30 AM)
Low50 °F (Aug 18, 4:00 AM)3% (Aug 16, 1:00 PM)29.92 "Hg (Aug 22, 3:00 PM)
Average69 °F46%30.03 "Hg
* Reported Aug 16 9:00 AM — Aug 31 9:00 AM, Port Hedland, Weather by CustomWeather, © 2014

Note: Actual official high and low records may vary slightly from our data, if they occured in-between our weather recording intervals... More about our weather records

Advertising

Port Hedland weather history for previous 24 hours

 ConditionsComfort  
Time TempWeatherWind HumidityBarometerVisibility
9:00 AM
Aug 31
84 °FSunny.10 mph5%30.01 "Hg10 mi
8:30 AM81 °FSunny.7 mph15%30.01 "Hg10 mi
8:00 AM75 °FSunny.8 mph41%30.01 "Hg10 mi
7:30 AM66 °FSunny.2 mph32%29.98 "Hg10 mi
7:00 AM59 °FSunny.7 mph39%29.98 "Hg10 mi
6:30 AM55 °FSunny.7 mph41%29.98 "HgN/A
6:00 AM55 °FSunny.7 mph41%29.95 "HgN/A
5:30 AM55 °FSunny.7 mph41%29.95 "HgN/A
5:00 AM57 °FClear.8 mph39%29.95 "HgN/A
4:30 AM54 °FClear.7 mph47%29.95 "HgN/A
4:00 AM57 °FClear.8 mph41%29.95 "HgN/A
3:30 AM54 °FClear.6 mph54%29.95 "HgN/A
3:00 AM55 °FClear.7 mph59%29.95 "HgN/A
2:30 AM57 °FClear.8 mph59%29.95 "HgN/A
2:00 AM57 °FClear.9 mph67%29.95 "HgN/A
1:00 AM57 °FClear.8 mph63%29.98 "HgN/A
12:30 AM59 °FClear.6 mph63%29.98 "HgN/A
12:00 AM59 °FClear.8 mph68%29.98 "HgN/A
11:30 PM
Aug 30
59 °FClear.6 mph72%29.98 "HgN/A
11:00 PM59 °FClear.7 mph77%29.98 "HgN/A
10:30 PM61 °FClear.6 mph77%29.98 "HgN/A
10:00 PM61 °FClear.6 mph77%30.01 "HgN/A
9:30 PM61 °FClear.6 mph88%30.01 "HgN/A
9:00 PM63 °FClear.8 mph88%30.01 "HgN/A
8:00 PM64 °FClear.7 mph83%30.01 "HgN/A
7:30 PM66 °FClear.7 mph78%29.98 "HgN/A
7:00 PM66 °FClear.8 mph78%29.98 "HgN/A
6:30 PM68 °FClear.8 mph73%29.98 "HgN/A
6:00 PM72 °FClear.8 mph78%29.98 "HgN/A
5:30 PM77 °FClear.8 mph94%29.98 "HgN/A
5:00 PM81 °FClear.10 mph100%29.98 "HgN/A
4:30 PM82 °FSunny.12 mph100%29.95 "HgN/A
4:00 PM82 °FSunny.13 mph100%29.95 "HgN/A
3:30 PM84 °FSunny.15 mph100%29.95 "HgN/A
3:00 PM90 °FSunny.16 mph100%29.95 "HgN/A
2:30 PM90 °FSunny.15 mph100%29.95 "HgN/A
2:00 PM91 °FSunny.10 mph100%29.95 "HgN/A
1:30 PM91 °FSunny.13 mph100%29.95 "HgN/A
1:00 PM90 °FSunny.13 mph100%29.98 "HgN/A
12:30 PM91 °FSunny.12 mph94%29.98 "HgN/A
12:00 PM91 °FSunny.8 mph89%29.98 "HgN/A
11:30 AM90 °FSunny.9 mph89%30.01 "HgN/A
11:00 AM90 °FSunny.8 mph89%30.01 "HgN/A
10:30 AM90 °FSunny.6 mph79%30.04 "HgN/A
10:00 AM88 °FSunny.9 mph75%30.04 "HgN/A
Weather by CustomWeather, © 2014

See weather overviewHow to use our weather pages